Location: Seattle
(47.6064°N, 122.3308°W)
Time: 04:01:04
(UTC-07:00)

Explorer 7 - Pass Details

Date: 06 August 2021
Orbit: 484 x 676 km, 50.3° (Epoch: 15 September)

Event Time Altitude Azimuth Distance (km) Brightness Sun altitude
Exits shadow 03:21:43 17° 133° (SE) 1,300 8.6 -19.9°
Drops below altitude 10° 03:23:59 10° 96° (E) 1,678 9.6 -19.7°
Sets 03:26:45 0° 76° (ENE) 2,583 11.0 -19.4°
